Regional Weather Roundup
Issued by NWS Cleveland, OH

Home | Current Version | Previous Version | Text Only | Print | Product List | Glossary Off
Versions: 1 2 3 4 5 6 7 8 9 10 11 12 13 14 15 16 17 18 19 20 21 22 23 24 25 26 27 28 29 30 31 32 33 34 35 36 37 38 39 40 41 42 43 44 45 46 47 48 49 50

000
ASUS41 KCLE 290510
RWRCLE
OHIO REGIONAL WEATHER ROUNDUP
NATIONAL WEATHER SERVICE WILMINGTON, OH
1200 AM EST SAT NOV 29 2014

NOTE: "FAIR" INDICATES FEW OR NO CLOUDS BELOW 12,000 FEET WITH NO
SIGNIFICANT WEATHER AND/OR OBSTRUCTIONS TO VISIBILITY.

OHZ001>008-015>018-024>027-034-035-043-044-290600-
   NORTHWEST OHIO

CITY           SKY/WX    TMP DP  RH WIND       PRES   REMARKS
DEFIANCE       CLOUDY    32  21  64 S9        30.05F WCI  24
FINDLAY        CLOUDY    33  21  61 S14       30.05F WCI  23
TOLEDO EXPRESS CLOUDY    29  21  72 S5        30.06F WCI  24
TOLEDO METCALF CLOUDY    30  22  72 S7        30.08F WCI  23
LIMA           CLOUDY    33  20  58 S16       30.04F WCI  23
$$

OHZ009>014-019>023-028>033-038-089-290600-
   NORTHEAST OHIO

CITY           SKY/WX    TMP DP  RH WIND       PRES   REMARKS
CLE-HOPKINS    CLOUDY    29  19  66 S12       30.14F WCI  19
CLE-LAKEFRONT  CLOUDY    30  19  63 SE12      30.13F WCI  20
CUY CO. ARPT   NOT AVBL
LORAIN-ELYRIA  CLOUDY    28  20  71 S12       30.12F WCI  18
ASHTABULA      CLOUDY    25  21  85 S8        30.16F WCI  16
AKRON-CANTON   CLOUDY    29  19  66 S10       30.12F WCI  20
WOOSTER        CLOUDY    28  19  69 S9        30.12F WCI  19
MANSFIELD      CLOUDY    29  19  66 S14       30.09F WCI  18
YOUNGSTOWN     CLOUDY    26  19  74 SE6       30.15S WCI  19
$$

OHZ042-051>053-060>062-070>072-077>081-290600-
  SOUTHWEST OHIO

CITY           SKY/WX    TMP DP  RH WIND       PRES   REMARKS
CINC-COVINGTON CLOUDY    32  17  54 SE10      30.07F WCI  24
CINC-LUNKEN    CLOUDY    31  20  63 CALM      30.11F
HAMILTON       CLOUDY    34  18  52 SE3       30.10F
DAYTON         CLOUDY    32  19  58 S10       30.07F WCI  24
WRIGHT-PAT AFB CLOUDY    31  19  60 S5        30.09F WCI  26
DAYTON GENERAL CLOUDY    31  20  63 S9        30.07F WCI  23
WILMINGTON     CLOUDY    30  19  63 S10       30.08F WCI  21
$$

OHZ036-037-039>041-045>050-054>059-063>069-073>076-082>088-290600-
  CENTRAL AND SOUTHEAST OHIO

CITY           SKY/WX    TMP DP  RH WIND       PRES   REMARKS
COLUMBUS       CLOUDY    31  18  58 SE7       30.12F WCI  24
OSU AIRPORT    CLOUDY    31  18  58 S9        30.11F WCI  23
BOLTON FIELD   CLOUDY    30  21  69 SE7       30.12F WCI  23
RICKENBACK AFB MOCLDY    30  20  65 SE5       30.11F WCI  25
NEWARK         CLOUDY    31  18  58 S5        30.13F WCI  26
MARION         CLOUDY    31  19  61 S13       30.09F WCI  21
LANCASTER      MOCLDY    31  19  61 SE7       30.14F WCI  24
ZANESVILLE     CLOUDY    29  19  66 S7        30.15F WCI  22
NEW PHILLY     CLOUDY    30  20  66 SE5       30.16S WCI  25
$$


USA.gov is the U.S. government's official web portal to all federal, state and local government web resources and services.